TimeCST,TemperatureF,Dew PointF,Humidity,Sea Level PressureIn,VisibilityMPH,Wind Direction,Wind SpeedMPH,Gust SpeedMPH,PrecipitationIn,Events,Conditions,WindDirDegrees,DateUTC
12:55 AM,24.6,14.2,65,30.25,10.0,East,9.2,-,N/A,,Overcast,90,2013-02-21 06:55:00
1:55 AM,24.3,14.5,67,30.22,10.0,East,9.2,17.3,N/A,,Overcast,90,2013-02-21 07:55:00
2:55 AM,23.7,14.5,68,30.15,10.0,East,10.4,17.3,N/A,,Mostly Cloudy,90,2013-02-21 08:55:00
3:55 AM,24.3,14.4,66,30.15,10.0,East,6.9,19.6,N/A,,Overcast,90,2013-02-21 09:55:00
4:55 AM,24.3,14.0,65,30.13,10.0,East,13.8,20.7,N/A,,Overcast,80,2013-02-21 10:55:00
5:55 AM,24.1,14.0,65,30.13,10.0,East,11.5,-,N/A,,Overcast,80,2013-02-21 11:55:00
6:08 AM,24.8,14.0,64,30.10,10.0,East,10.4,-,N/A,,Overcast,90,2013-02-21 12:08:00
6:20 AM,24.8,14.0,64,30.11,3.0,East,9.2,-,N/A,Snow,Snow,90,2013-02-21 12:20:00
6:27 AM,24.8,14.0,64,30.11,3.0,East,12.7,-,N/A,Snow,Snow,100,2013-02-21 12:27:00
6:29 AM,24.8,15.8,69,30.12,5.0,East,11.5,-,N/A,Snow,Light Snow,100,2013-02-21 12:29:00
6:35 AM,23.0,15.8,74,30.12,2.5,East,9.2,-,N/A,Snow,Light Snow,100,2013-02-21 12:35:00
6:41 AM,23.0,17.6,80,30.12,1.5,East,10.4,-,N/A,Snow,Snow,90,2013-02-21 12:41:00
6:42 AM,23.0,17.6,80,30.12,1.2,East,10.4,-,N/A,Snow,Light Snow,90,2013-02-21 12:42:00
6:55 AM,22.6,19.6,88,30.10,1.0,East,10.4,-,0.00,Snow,Snow,80,2013-02-21 12:55:00
6:58 AM,21.2,21.2,100,30.07,0.8,East,11.5,18.4,N/A,Snow,Snow,80,2013-02-21 12:58:00
7:15 AM,21.2,21.2,100,30.07,0.5,ENE,12.7,18.4,N/A,Snow,Light Snow,70,2013-02-21 13:15:00
7:37 AM,21.2,21.2,100,30.02,0.5,ENE,18.4,27.6,N/A,Snow,Light Snow,70,2013-02-21 13:37:00
7:55 AM,21.7,21.6,99,30.07,0.5,East,13.8,-,0.08,Snow,Light Snow,80,2013-02-21 13:55:00
8:08 AM,21.2,21.2,100,30.08,0.2,East,13.8,19.6,N/A,Snow,Light Snow,80,2013-02-21 14:08:00
8:16 AM,21.2,21.2,100,30.06,0.2,ENE,13.8,26.5,N/A,Fog-Snow,Light Freezing Fog,70,2013-02-21 14:16:00
8:19 AM,21.2,21.2,100,30.06,0.2,ENE,13.8,-,N/A,Snow-Thunderstorm,Thunderstorms and Snow,70,2013-02-21 14:19:00
8:34 AM,21.2,21.2,100,30.05,0.2,ENE,15.0,-,N/A,Fog-Snow,Light Freezing Fog,70,2013-02-21 14:34:00
8:55 AM,21.6,21.4,99,30.11,0.2,ENE,8.1,-,0.11,Snow,Heavy Snow,70,2013-02-21 14:55:00
9:55 AM,21.4,21.2,99,30.05,0.2,ENE,16.1,-,0.12,Snow,Heavy Snow,70,2013-02-21 15:55:00
10:11 AM,21.2,21.2,100,30.03,0.2,ENE,19.6,26.5,N/A,Fog-Snow,Light Freezing Fog,70,2013-02-21 16:11:00
10:36 AM,21.2,21.2,100,29.99,0.5,ENE,20.7,29.9,N/A,Snow,Snow,70,2013-02-21 16:36:00
10:55 AM,21.9,21.7,99,30.04,0.5,East,15.0,-,0.13,Snow,Snow,90,2013-02-21 16:55:00
11:13 AM,23.0,23.0,100,30.01,0.5,East,18.4,26.5,N/A,Snow,Snow,90,2013-02-21 17:13:00
11:55 AM,22.5,22.3,99,29.98,0.5,East,15.0,25.3,0.05,Snow,Snow,90,2013-02-21 17:55:00
12:55 PM,23.4,23.0,99,29.94,0.5,East,11.5,-,0.09,Snow,Snow,100,2013-02-21 18:55:00
12:58 PM,23.0,23.0,100,29.93,1.5,East,15.0,20.7,N/A,Snow,Light Snow,100,2013-02-21 18:58:00
1:16 PM,24.8,24.8,100,29.89,2.5,East,16.1,21.9,N/A,Snow,Light Snow,100,2013-02-21 19:16:00
1:55 PM,24.6,24.4,99,29.87,2.5,East,10.4,-,0.03,Snow,Light Snow,100,2013-02-21 19:55:00
2:14 PM,24.8,24.8,100,29.87,2.0,East,12.7,-,N/A,,Ice Pellets,100,2013-02-21 20:14:00
2:55 PM,25.9,25.7,99,29.85,4.0,East,10.4,-,0.06,,Ice Pellets,100,2013-02-21 20:55:00
3:55 PM,27.1,27.0,99,29.82,4.0,East,11.5,-,0.00,,Overcast,100,2013-02-21 21:55:00
4:55 PM,28.2,28.0,99,29.80,4.0,ESE,11.5,-,0.01,,Overcast,110,2013-02-21 22:55:00
5:55 PM,27.5,27.3,99,29.81,5.0,ESE,5.8,-,0.00,,Overcast,110,2013-02-21 23:55:00
6:24 PM,28.4,28.4,100,29.82,3.0,ESE,5.8,-,N/A,,Light Freezing Drizzle,120,2013-02-22 00:24:00
6:37 PM,26.6,26.6,100,29.82,3.0,ESE,6.9,-,N/A,Snow,Light Snow,110,2013-02-22 00:37:00
6:55 PM,27.1,27.0,99,29.80,3.0,East,8.1,-,0.01,Snow,Light Snow,100,2013-02-22 00:55:00
7:05 PM,26.6,26.6,100,29.81,3.0,ESE,6.9,-,N/A,Snow,Light Snow,110,2013-02-22 01:05:00
7:38 PM,26.6,26.6,100,29.81,3.0,East,3.5,-,N/A,Snow,Light Snow,90,2013-02-22 01:38:00
7:55 PM,26.6,26.4,99,29.81,2.5,East,4.6,-,0.01,Snow,Light Snow,100,2013-02-22 01:55:00
8:08 PM,26.6,26.6,100,29.80,3.0,East,5.8,-,N/A,,Overcast,100,2013-02-22 02:08:00
8:17 PM,26.6,26.6,100,29.80,5.0,ESE,4.6,-,N/A,Snow,Light Snow,110,2013-02-22 02:17:00
8:29 PM,26.6,26.6,100,29.80,5.0,ESE,4.6,-,N/A,Snow,Light Snow,110,2013-02-22 02:29:00
8:55 PM,26.4,26.2,99,29.80,5.0,ESE,4.6,-,0.00,Snow,Light Snow,110,2013-02-22 02:55:00
9:13 PM,26.6,26.6,100,29.80,3.0,Calm,Calm,-,N/A,Snow,Light Snow,0,2013-02-22 03:13:00
9:33 PM,26.6,26.6,100,29.80,3.0,Calm,Calm,-,N/A,Snow,Light Snow,0,2013-02-22 03:33:00
9:55 PM,26.4,26.4,100,29.80,3.0,East,3.5,-,0.01,Snow,Light Snow,90,2013-02-22 03:55:00
10:03 PM,26.6,26.6,100,29.80,4.0,Calm,Calm,-,N/A,Snow,Light Snow,0,2013-02-22 04:03:00
10:37 PM,26.6,26.6,100,29.80,4.0,Calm,Calm,-,N/A,,Overcast,0,2013-02-22 04:37:00
10:55 PM,26.4,26.4,100,29.80,5.0,Calm,Calm,-,0.01,,Overcast,0,2013-02-22 04:55:00
11:55 PM,26.8,26.8,100,29.80,4.0,Calm,Calm,-,N/A,,Overcast,0,2013-02-22 05:55:00